GW1429 Weather Reports


time (UTC)temp
C
wind
direction
speed
KPH
gust
KPH
rain 1hr
cm
rain 24hr
cm
rain mn
cm
humidity
%
barometer
mb
20260507001630 16 26 11.3 16.1 0.00 0.00 0.00 83 1047.5
20260507001127 16 42 4.8 14.5 0.00 0.00 0.00 83 1047.4
20260507000623 16 14 11.3 14.5 0.00 0.00 0.00 83 1047.4
20260507000119 16 23 14.5 16.1 0.00 0.00 0.00 83 1047.6
20260506235616 16 27 9.7 14.5 0.00 0.00 0.00 83 1047.2
20260506235116 16 13 4.8 12.9 0.00 0.00 0.00 83 1047.1
20260506234614 16 90 3.2 19.3 0.00 0.00 0.00 83 1047.6
20260506234111 16 354 14.5 22.5 0.00 0.00 0.00 83 1047.4
20260506233608 16 41 3.2 16.1 0.00 0.00 0.00 83 1047.2
20260506233105 16 8 9.7 30.6 0.00 0.00 0.00 84 1047.0
20260506232601 16 334 17.7 22.5 0.00 0.00 0.00 84 1047.2
20260506232102 16 356 8.0 22.5 0.00 0.00 0.00 83 1047.1
20260506231559 16 353 9.7 20.9 0.00 0.00 0.00 84 1047.0
20260506231057 16 318 4.8 24.1 0.00 0.00 0.00 83 1047.3
20260506230553 16 41 11.3 20.9 0.00 0.00 0.00 83 1047.4
20260506230051 16 10 8.0 14.5 0.00 0.00 0.00 83 1047.1
20260506225548 16 15 19.3 19.3 0.00 0.00 0.00 84 1047.2
20260506225044 16 64 16.1 25.7 0.00 0.00 0.00 84 1047.4
20260506224541 16 12 16.1 19.3 0.00 0.00 0.00 84 1047.3
20260506224037 16 6 6.4 16.1 0.00 0.00 0.00 84 1047.4
20260506223533 16 12 9.7 25.7 0.00 0.00 0.00 85 1047.2
20260506223030 16 331 3.2 17.7 0.00 0.00 0.00 85 1046.9
20260506222527 16 6 11.3 20.9 0.00 0.00 0.00 85 1047.0
20260506222023 16 14 12.9 27.4 0.00 0.00 0.00 84 1047.0
20260506221521 16 25 14.5 22.5 0.00 0.00 0.00 84 1047.1
20260506221019 16 315 9.7 17.7 0.00 0.00 0.00 84 1047.1
20260506220514 16 39 11.3 19.3 0.00 0.00 0.00 85 1047.0
20260506220010 15 346 11.3 24.1 0.00 0.00 0.00 85 1047.4
20260506215507 15 58 20.9 27.4 0.00 0.00 0.00 85 1047.1
20260506215003 16 0 11.3 27.4 0.00 0.00 0.00 84 1046.9
20260506214500 16 332 14.5 25.7 0.00 0.00 0.00 84 1046.8
20260506213957 15 9 24.1 29.0 0.00 0.00 0.00 84 1047.0
20260506213455 16 347 8.0 27.4 0.00 0.00 0.00 84 1047.0
20260506212952 16 324 3.2 25.7 0.00 0.00 0.00 84 1047.2
20260506212448 16 354 11.3 25.7 0.00 0.00 0.00 83 1047.1
20260506211943 16 9 9.7 20.9 0.00 0.00 0.00 84 1047.2
20260506211439 16 26 16.1 27.4 0.00 0.00 0.00 83 1047.0
20260506210937 16 359 11.3 32.2 0.00 0.00 0.00 83 1047.2
20260506210433 16 28 12.9 24.1 0.00 0.00 0.00 84 1047.5
20260506205931 16 347 19.3 25.7 0.00 0.00 0.00 84 1047.3
20260506205426 16 321 22.5 35.4 0.00 0.00 0.00 83 1047.6
20260506204923 16 348 9.7 25.7 0.00 0.00 0.00 83 1047.3
20260506204421 16 330 17.7 29.0 0.00 0.00 0.00 82 1047.3
20260506203918 16 8 20.9 33.8 0.00 0.00 0.00 83 1047.3
20260506203414 16 325 12.9 41.8 0.00 0.00 0.00 83 1047.4
20260506202911 16 321 17.7 25.7 0.00 0.00 0.00 83 1047.6
20260506202409 16 358 16.1 38.6 0.00 0.00 0.00 83 1047.6
20260506201905 16 338 27.4 32.2 0.00 0.00 0.00 82 1047.4
20260506201403 17 25 25.7 30.6 0.00 0.00 0.00 81 1047.3
20260506200859 17 349 19.3 29.0 0.00 0.00 0.00 80 1047.3
20260506200355 17 345 20.9 37.0 0.00 0.00 0.00 81 1047.2
20260506195851 17 324 19.3 38.6 0.00 0.00 0.00 82 1047.1
20260506195349 17 335 17.7 29.0 0.00 0.00 0.00 81 1047.2
20260506194846 17 18 14.5 33.8 0.00 0.00 0.00 82 1047.1
20260506194343 17 14 16.1 29.0 0.00 0.00 0.00 82 1047.0
20260506193840 18 13 14.5 30.6 0.00 0.00 0.00 81 1047.0
20260506193336 17 354 19.3 32.2 0.00 0.00 0.00 82 1047.3
20260506192833 18 342 19.3 29.0 0.00 0.00 0.00 83 1047.1
20260506192330 18 349 22.5 33.8 0.00 0.00 0.00 83 1047.2
20260506191827 18 319 12.9 32.2 0.00 0.00 0.00 82 1047.1
20260506191323 18 21 4.8 35.4 0.00 0.00 0.00 84 1047.3
20260506190820 18 2 24.1 35.4 0.00 0.00 0.00 84 1047.2
20260506190316 18 352 20.9 32.2 0.00 0.00 0.00 83 1047.5
20260506185813 19 326 11.3 38.6 0.00 0.00 0.00 83 1047.3
20260506185310 20 337 16.1 32.2 0.00 0.00 0.00 81 1047.2
20260506184807 20 336 14.5 35.4 0.00 0.00 0.00 80 1047.0
20260506184304 21 1 14.5 27.4 0.00 0.00 0.00 78 1046.8
20260506183802 22 334 3.2 25.7 0.00 0.00 0.00 76 1046.7
20260506183257 22 43 6.4 16.1 0.00 0.00 0.00 75 1046.7
20260506182755 22 21 16.1 17.7 0.00 0.00 0.00 76 1046.6
20260506182252 22 354 8.0 14.5 0.00 0.00 0.00 75 1046.8
20260506181750 23 56 8.0 14.5 0.00 0.00 0.00 74 1046.3
20260506181247 23 8 9.7 14.5 0.00 0.00 0.00 72 1046.6
20260506180744 22 17 4.8 8.0 0.00 0.00 0.00 75 1046.7
20260506180240 22 18 8.0 8.0 0.00 0.00 0.00 74 1046.6
20260506175736 22 78 3.2 9.7 0.00 0.00 0.00 78 1046.8
20260506175233 21 83 1.6 16.1 0.00 0.00 0.00 79 1046.3
20260506174731 21 121 12.9 12.9 0.00 0.00 0.00 78 1046.5
20260506174227 20 78 8.0 12.9 0.00 0.00 0.00 80 1046.3
20260506173725 20 55 4.8 14.5 0.00 0.00 0.00 80 1046.3
20260506173222 20 119 6.4 17.7 0.00 0.00 0.00 82 1046.2
20260506172719 20 121 8.0 11.3 0.00 0.00 0.00 81 1046.1
20260506172215 19 342 1.6 11.3 0.00 0.00 0.00 83 1046.5
20260506171713 18 109 4.8 20.9 0.00 0.00 0.00 85 1046.3
20260506171210 19 111 19.3 27.4 0.00 0.00 0.00 83 1046.3
20260506170708 19 74 16.1 27.4 0.00 0.00 0.00 83 1046.3
20260506170204 18 116 16.1 17.7 0.00 0.00 0.00 84 1046.6
20260506165703 18 103 11.3 29.0 0.00 0.00 0.00 86 1046.7
20260506165159 18 126 17.7 20.9 0.00 0.00 0.00 86 1046.6
20260506164656 17 100 14.5 24.1 0.05 0.00 0.00 87 1046.6
20260506164154 17 113 6.4 24.1 0.05 0.00 0.00 89 1046.6
20260506163650 17 121 11.3 20.9 0.00 0.00 0.00 91 1046.8
20260506163145 16 138 4.8 14.5 0.00 0.00 0.00 91 1047.5
20260506162641 16 19 11.3 24.1 0.00 0.00 0.00 93 1047.4
20260506162139 16 55 12.9 14.5 0.00 0.00 0.00 94 1047.5
20260506161636 16 73 6.4 12.9 0.00 0.00 0.00 94 1047.5
20260506161133 15 20 9.7 16.1 0.00 0.00 0.00 94 1047.4
20260506160630 15 68 9.7 20.9 0.00 0.00 0.00 95 1047.9
20260506160127 15 348 1.6 29.0 0.00 0.00 0.00 95 1048.4
20260506155626 15 14 9.7 29.0 0.00 0.00 0.00 95 1048.1
20260506155122 16 6 24.1 46.7 0.00 0.00 0.00 94 1047.5
20260506153219 16 52 25.7 38.6 0.00 0.00 0.00 94 1047.7
20260506152715 17 7 8.0 30.6 0.00 0.00 0.00 93 1047.7
20260506152213 17 13 22.5 41.8 0.00 0.00 0.00 92 1047.6
20260506151712 17 359 16.1 38.6 0.00 0.00 0.00 92 1047.2
20260506151208 18 16 9.7 14.5 0.00 0.00 0.00 93 1047.0
20260506150704 17 20 17.7 25.7 0.00 0.00 0.00 93 1046.7
20260506150202 18 123 12.9 37.0 0.00 0.00 0.00 92 1046.8
20260506145659 18 51 20.9 38.6 0.00 0.00 0.00 92 1047.0
20260506145155 18 345 17.7 45.1 0.00 0.00 0.00 91 1046.4
20260506144653 19 349 14.5 35.4 0.00 0.00 0.00 90 1045.9
20260506144149 20 0 14.5 20.9 0.00 0.00 0.00 90 1045.7
20260506143647 20 21 11.3 33.8 0.00 0.00 0.00 89 1045.8
20260506143145 22 6 6.4 24.1 0.00 0.00 0.00 88 1045.5
20260506142643 25 7 4.8 6.4 0.00 0.00 0.00 88 1045.1
20260506142141 25 69 1.6 4.8 0.00 0.00 0.00 89 1044.8
20260506141638 25 168 1.6 4.8 0.00 0.00 0.00 89 1044.7
20260506141136 24 0 0.0 6.4 0.00 0.00 0.00 90 1044.9
20260506140633 24 139 9.7 9.7 0.00 0.00 0.00 90 1045.0
20260506140131 24 170 3.2 9.7 0.00 0.00 0.00 90 1044.7
20260506135627 24 99 0.0 4.8 0.00 0.00 0.00 91 1045.1
20260506135124 24 123 0.0 3.2 0.00 0.00 0.00 91 1045.3
20260506134620 23 151 8.0 8.0 0.00 0.00 0.00 92 1044.4
20260506134116 23 147 3.2 8.0 0.00 0.00 0.00 92 1044.2
20260506133614 23 134 6.4 6.4 0.00 0.00 0.00 92 1044.6
20260506133110 23 164 3.2 8.0 0.00 0.00 0.00 92 1044.7
20260506132608 23 142 4.8 8.0 0.00 0.00 0.00 92 1044.3
20260506132105 24 145 4.8 12.9 0.00 0.00 0.00 91 1044.4
20260506131602 24 140 9.7 9.7 0.00 0.00 0.00 91 1044.4
20260506131058 24 186 4.8 9.7 0.00 0.00 0.00 91 1044.1
20260506130555 24 154 12.9 16.1 0.00 0.00 0.00 92 1043.9
20260506130053 23 172 6.4 16.1 0.00 0.00 0.00 93 1044.0
20260506125551 23 180 8.0 12.9 0.00 0.00 0.00 94 1043.9
20260506125048 23 180 6.4 9.7 0.00 0.00 0.00 94 1043.9
20260506124546 23 149 6.4 8.0 0.00 0.00 0.00 95 1043.8
20260506124044 23 176 6.4 8.0 0.00 0.00 0.00 95 1043.8
20260506123541 23 166 3.2 8.0 0.00 0.00 0.00 96 1043.8
20260506123039 22 180 3.2 11.3 0.00 0.00 0.00 96 1043.7
20260506122535 22 132 3.2 6.4 0.00 0.00 0.00 96 1043.6
20260506122034 22 162 1.6 6.4 0.00 0.00 0.00 96 1043.6
20260506121531 22 169 3.2 6.4 0.00 0.00 0.00 96 1043.9
20260506121027 22 164 0.0 8.0 0.00 0.00 0.00 96 1043.9
20260506120525 22 156 6.4 8.0 0.00 0.00 0.00 95 1043.5
20260506120022 22 199 4.8 8.0 0.00 0.00 0.00 95 1043.6
20260506115520 22 165 0.0 6.4 0.00 0.00 0.00 95 1043.6
20260506115018 23 177 4.8 6.4 0.00 0.00 0.00 95 1043.7
20260506114515 23 131 3.2 3.2 0.00 0.00 0.00 95 1043.6
20260506114014 23 154 1.6 4.8 0.00 0.00 0.00 95 1043.7
20260506113511 23 169 4.8 6.4 0.00 0.00 0.00 94 1043.3
20260506113009 23 228 3.2 6.4 0.00 0.00 0.00 94 1043.7
20260506112505 23 188 3.2 8.0 0.00 0.00 0.00 95 1043.8
20260506112003 23 208 4.8 6.4 0.00 0.00 0.00 95 1043.7
20260506111501 23 209 4.8 6.4 0.00 0.00 0.00 95 1043.9
20260506110957 23 186 0.0 3.2 0.00 0.00 0.00 95 1043.8
20260506110455 23 201 3.2 4.8 0.00 0.00 0.00 95 1043.8
20260506105951 23 237 3.2 6.4 0.00 0.00 0.00 95 1043.7
20260506105448 23 175 3.2 3.2 0.00 0.00 0.00 95 1043.8
20260506104945 23 225 4.8 6.4 0.00 0.00 0.00 95 1043.8
20260506104443 23 230 6.4 8.0 0.00 0.00 0.00 95 1043.6
20260506103941 23 215 1.6 4.8 0.00 0.00 0.00 95 1043.9
20260506103438 23 229 4.8 6.4 0.00 0.00 0.00 95 1043.6
20260506102935 23 244 4.8 8.0 0.00 0.00 0.00 95 1043.8
20260506102433 23 228 3.2 8.0 0.00 0.00 0.00 95 1043.5
20260506101930 23 180 4.8 8.0 0.00 0.00 0.00 95 1043.6
20260506101426 23 170 4.8 6.4 0.00 0.00 0.00 94 1043.4
20260506100924 23 207 6.4 8.0 0.00 0.00 0.00 94 1043.5
20260506100422 23 177 4.8 8.0 0.00 0.00 0.00 94 1043.4
20260506095920 23 183 0.0 6.4 0.00 0.00 0.00 93 1043.2
20260506095418 23 217 11.3 12.9 0.00 0.00 0.00 93 1043.4
20260506094914 23 221 0.0 6.4 0.00 0.00 0.00 92 1043.3
20260506094413 23 201 0.0 11.3 0.00 0.00 0.00 92 1043.0
20260506093910 23 193 4.8 11.3 0.00 0.00 0.00 92 1043.1
20260506093407 23 206 4.8 9.7 0.00 0.00 0.00 91 1042.9
20260506092905 23 187 8.0 9.7 0.00 0.00 0.00 91 1042.8
20260506092403 23 135 4.8 8.0 0.00 0.00 0.00 91 1042.8
20260506091859 23 168 6.4 11.3 0.00 0.00 0.00 91 1042.8
20260506091357 23 186 6.4 8.0 0.00 0.00 0.00 91 1042.8
20260506090854 23 195 3.2 8.0 0.00 0.00 0.00 91 1042.6
20260506090352 23 166 6.4 9.7 0.00 0.00 0.00 91 1042.9
20260506085848 23 180 4.8 11.3 0.00 0.00 0.00 91 1042.7
20260506085345 23 207 9.7 9.7 0.00 0.00 0.00 90 1042.6
20260506084841 23 223 8.0 20.9 0.00 0.00 0.00 90 1042.4
20260506084338 23 221 6.4 9.7 0.00 0.00 0.00 90 1042.7
20260506083835 23 222 4.8 12.9 0.00 0.00 0.00 90 1042.7
20260506083332 23 210 11.3 14.5 0.00 0.00 0.00 90 1042.5
20260506082830 23 184 6.4 12.9 0.00 0.00 0.00 90 1042.7
20260506082326 23 210 6.4 17.7 0.00 0.00 0.00 90 1042.4
20260506081822 23 207 12.9 16.1 0.00 0.00 0.00 90 1042.5
20260506081320 23 199 12.9 24.1 0.00 0.00 0.00 90 1042.5
20260506080817 23 216 4.8 14.5 0.00 0.00 0.00 90 1042.4
20260506080314 23 196 12.9 22.5 0.00 0.00 0.00 90 1042.4
20260506073258 23 204 6.4 24.1 0.00 0.00 0.00 91 1042.8
20260506072755 23 172 19.3 25.7 0.00 0.00 0.00 91 1042.6
20260506072252 23 216 6.4 19.3 0.00 0.00 0.00 91 1043.0
20260506071750 23 223 17.7 24.1 0.00 0.00 0.00 91 1043.0
20260506071248 23 228 12.9 30.6 0.00 0.00 0.00 91 1043.1
20260506070744 23 161 12.9 27.4 0.00 0.00 0.00 91 1043.1
20260506070241 23 162 9.7 25.7 0.00 0.00 0.00 91 1043.0
20260506062218 23 232 8.0 22.5 0.00 0.00 0.00 91 1042.7
20260506061714 23 176 12.9 22.5 0.00 0.00 0.00 91 1042.9
20260506061212 23 180 0.0 25.7 0.00 0.00 0.00 91 1042.7
20260506060711 23 209 4.8 29.0 0.00 0.00 0.00 91 1042.7
20260506060207 23 163 8.0 27.4 0.00 0.00 0.00 91 1042.6
20260506051139 24 172 11.3 27.4 0.00 0.00 0.00 90 1042.9
20260506050638 24 159 9.7 17.7 0.00 0.00 0.00 90 1042.8
20260506050134 24 146 11.3 22.5 0.00 0.00 0.00 90 1042.7
20260506045127 24 162 9.7 22.5 0.00 0.00 0.00 90 1042.7
20260506044625 24 220 17.7 32.2 0.00 0.00 0.00 90 1042.9
20260506044122 24 167 8.0 17.7 0.00 0.00 0.00 90 1042.8
20260506043619 24 186 17.7 25.7 0.00 0.00 0.00 89 1042.7
20260506043117 24 172 27.4 29.0 0.00 0.00 0.00 90 1042.9
20260506042616 24 150 17.7 20.9 0.00 0.00 0.00 90 1042.7
20260506042114 24 178 4.8 11.3 0.00 0.00 0.00 90 1042.6
20260506041612 24 180 0.0 14.5 0.00 0.00 0.00 90 1042.6
20260506041108 24 180 9.7 9.7 0.00 0.00 0.00 90 1042.4
20260506040606 24 150 9.7 12.9 0.00 0.00 0.00 90 1042.7
20260506035559 24 209 4.8 8.0 0.00 0.00 0.00 89 1042.4
20260506035056 24 220 4.8 14.5 0.00 0.00 0.00 89 1042.2
20260506034553 25 155 6.4 19.3 0.00 0.00 0.00 89 1042.2
20260506034050 25 139 11.3 19.3 0.00 0.00 0.00 88 1042.2
20260506033548 25 165 19.3 19.3 0.00 0.00 0.00 88 1042.3
20260506033044 25 180 8.0 14.5 0.00 0.00 0.00 87 1042.2
20260506032542 25 180 8.0 24.1 0.00 0.00 0.00 87 1042.4
20260506032038 25 204 6.4 19.3 0.00 0.00 0.00 87 1042.3
20260506031536 25 144 4.8 12.9 0.00 0.00 0.00 87 1042.2
20260506031033 25 202 3.2 12.9 0.00 0.00 0.00 86 1041.9
20260506030531 25 166 4.8 12.9 0.00 0.00 0.00 86 1041.7
20260506030028 25 202 6.4 11.3 0.00 0.00 0.00 86 1041.8
20260506025525 25 158 8.0 8.0 0.00 0.00 0.00 86 1041.8
20260506025021 25 172 3.2 11.3 0.00 0.00 0.00 85 1042.0
20260506024518 25 157 3.2 8.0 0.00 0.00 0.00 85 1041.8
20260506024014 25 161 3.2 9.7 0.00 0.00 0.00 85 1041.7
20260506023510 25 199 3.2 4.8 0.00 0.00 0.00 86 1041.7
20260506023008 25 150 4.8 8.0 0.00 0.00 0.00 86 1041.3
20260506012627 26 165 3.2 9.7 0.00 0.00 0.00 80 1040.8
20260506012124 26 165 3.2 9.7 0.00 0.00 0.00 80 1040.8
20260506011622 26 165 3.2 9.7 0.00 0.00 0.00 80 1040.8
20260506011118 26 172 3.2 14.5 0.00 0.00 0.00 79 1040.5
20260506010617 26 170 3.2 8.0 0.00 0.00 0.00 79 1040.6
20260506010113 26 169 8.0 11.3 0.00 0.00 0.00 78 1040.5
20260506005611 27 180 12.9 16.1 0.00 0.00 0.00 77 1040.5
20260506005107 27 162 11.3 11.3 0.00 0.00 0.00 77 1040.6
20260506004604 27 199 9.7 12.9 0.00 0.00 0.00 76 1040.9
20260506004100 27 226 8.0 14.5 0.00 0.00 0.00 75 1040.6
20260506003557 27 201 9.7 12.9 0.00 0.00 0.00 75 1040.8
20260506003053 27 228 6.4 9.7 0.00 0.00 0.00 75 1040.5
20260506002549 27 132 0.0 16.1 0.00 0.00 0.00 75 1040.6
20260506002045 27 156 8.0 14.5 0.00 0.00 0.00 75 1040.6